星链-31360 (STARLINK-31360 )

导读 | 豆包AI

STARLINK-31360是美国SpaceX公司于2024年2月15日发射的星链第二代V2.0 Mini卫星,属于星链(Starlink)低轨宽带互联网星座组网卫星。该卫星重量约800公斤,配备激光星间链路,工作于Ku/Ka波段,单星容量超100Gbps,可提供百兆至千兆级用户带宽,旨在完善全球覆盖,为地面提供高速低延迟互联网接入服务。

Basic Information
目录编号:
58982
目录名称:
STARLINK-31360
国际标识:
2024-031T
轨道中心:
EARTH
卫星名称:
星链-31360
卫星全名:
星链-31360 (STARLINK-31360 )
卫星状态:
已陨落 最后检测时间 2025-02-08
发射日期:
2024-02-15 UTC
国别 :
美国 (US)
星等 :
--
Orbit Information
数据来源 国际轨道数据
星历时间: 2025-02-08T19:19:18+0800
轨道信息已过期446天
半长轴: 6583.165km
偏心率: 0.0012345
轨道倾角: 53.131°
近地点辐角 215.087°
升交点赤经 309.858°
平近点角 310.961°
近地点: 196.903km
远地点: 213.157km
周期: 88.596分钟
每日圈数: 16.253643
Detailed Information
固有亮度:
5
最大亮度:
0.3
卫星平台:
Starlink v2.0 mini
覆盖范围:
全球
运营商:
太空探索技术公司
运营商所在国:
美国
制造商(研发单位):
太空探索技术公司
制造商所在国:
美国
使用方式:
暂无
Satellite Introduction
星链(Starlink)计划是由太空探索技术公司(SpaceX)提出的一个巨型低轨卫星互联网星座项目,计划在2019年至2024年间在太空搭建由约1.2万颗卫星组成的“星链”网络,其中1584颗将部署在地球上空550千米处的近地轨道,并从2020年开始工作。该卫星仍在工作。